Location: Batang Balui
(2.7000°N, 113.7833°E)
Time: 00:52:12
(UTC+00:00)

FO-29 - Pass Details

Date: 05 April 2023
Orbit: 799 x 1322 km, 98.5° (Epoch: 29 May)

Event Time Altitude Azimuth Distance (km) Brightness Sun altitude
Rises 20:00:33 0° 38° (NE) 3,821 13.2 -36.1°
Reaches altitude 10° 20:03:52 10° 54° (NE) 2,773 12.5 -35.3°
Maximum altitude 20:08:16 21° 100° (E) 1,997 11.7 -34.2°
Drops below altitude 10° 20:12:21 10° 146° (SSE) 2,550 11.9 -33.2°
Sets 20:15:14 0° 163° (SSE) 3,426 12.5 -32.5°
